Time,TemperatureF,DewpointF,PressureIn,WindDirection,WindDirectionDegrees,WindSpeedMPH,WindSpeedGustMPH,Humidity,HourlyPrecipIn,Conditions,Clouds,dailyrainin,SoftwareType,DateUTC
2013-04-23 00:00:00,32.0,29.9,30.59,NE,45,0.0,0.0,92,0.00,,FEW027,0.00,VWS V14.01,2013-04-23 04:00:00,
2013-04-23 00:10:00,31.0,29.2,30.58,NE,45,0.0,0.0,93,0.00,,FEW027,0.00,VWS V14.01,2013-04-23 04:10:00,
2013-04-23 00:20:00,31.0,29.5,30.58,NE,45,0.0,0.0,94,0.00,,FEW027,0.00,VWS V14.01,2013-04-23 04:20:00,
2013-04-23 00:30:00,31.0,29.7,30.57,NE,45,0.0,0.0,95,0.00,,FEW027,0.00,VWS V14.01,2013-04-23 04:30:00,
2013-04-23 00:40:00,31.0,29.7,30.57,NE,45,0.0,0.0,95,0.00,,FEW027,0.00,VWS V14.01,2013-04-23 04:40:00,
2013-04-23 00:50:00,31.0,29.7,30.57,NE,45,0.0,0.0,95,0.00,,FEW027,0.00,VWS V14.01,2013-04-23 04:50:00,
2013-04-23 01:00:00,32.0,30.7,30.56,NE,45,0.0,0.0,95,0.00,,FEW027,0.00,VWS V14.01,2013-04-23 05:00:00,
2013-04-23 01:10:00,33.0,31.7,30.56,NE,45,0.0,0.0,95,0.00,,FEW027,0.00,VWS V14.01,2013-04-23 05:10:00,
2013-04-23 01:20:00,33.0,31.7,30.55,NE,45,0.0,0.0,95,0.00,,FEW027,0.00,VWS V14.01,2013-04-23 05:20:00,
2013-04-23 01:30:00,34.0,32.7,30.55,NE,45,0.0,0.0,95,0.00,,FEW027,0.00,VWS V14.01,2013-04-23 05:30:00,
2013-04-23 01:40:00,34.0,32.7,30.55,NE,45,0.0,2.0,95,0.00,,FEW027,0.00,VWS V14.01,2013-04-23 05:40:00,
2013-04-23 01:50:00,35.0,33.2,30.54,NE,45,0.0,2.0,93,0.00,,FEW027,0.00,VWS V14.01,2013-04-23 05:50:00,
2013-04-23 02:00:00,35.0,32.4,30.54,ENE,67,1.0,2.0,90,0.00,,FEW027,0.00,VWS V14.01,2013-04-23 06:00:00,
2013-04-23 02:10:00,35.0,32.1,30.53,NE,45,0.0,2.0,89,0.00,,FEW027,0.00,VWS V14.01,2013-04-23 06:10:00,
2013-04-23 02:20:00,35.0,32.1,30.53,NE,45,0.0,2.0,89,0.00,,FEW027,0.00,VWS V14.01,2013-04-23 06:20:00,
2013-04-23 02:30:00,36.0,33.1,30.53,NE,45,0.0,2.0,89,0.00,,FEW027,0.00,VWS V14.01,2013-04-23 06:30:00,
2013-04-23 02:40:00,36.0,33.1,30.53,NNE,22,2.0,2.0,89,0.00,,FEW027,0.00,VWS V14.01,2013-04-23 06:40:00,
2013-04-23 02:50:00,36.0,33.1,30.53,NE,45,0.0,2.0,89,0.00,,FEW027,0.00,VWS V14.01,2013-04-23 06:50:00,
2013-04-23 03:00:00,36.0,33.1,30.53,NE,45,0.0,2.0,89,0.00,,FEW027,0.00,VWS V14.01,2013-04-23 07:00:00,
2013-04-23 03:10:00,36.0,33.1,30.52,North,360,0.0,2.0,89,0.00,,FEW027,0.00,VWS V14.01,2013-04-23 07:10:00,
2013-04-23 03:20:00,36.0,33.1,30.52,NNE,22,0.0,2.0,89,0.00,,FEW027,0.00,VWS V14.01,2013-04-23 07:20:00,
2013-04-23 03:30:00,36.0,32.8,30.52,ENE,67,0.0,3.0,88,0.00,,FEW027,0.00,VWS V14.01,2013-04-23 07:30:00,
2013-04-23 03:40:00,36.0,32.8,30.52,ENE,67,0.0,4.0,88,0.00,,FEW027,0.00,VWS V14.01,2013-04-23 07:40:00,
2013-04-23 03:50:00,36.0,32.8,30.51,NE,45,1.0,2.0,88,0.00,,FEW027,0.00,VWS V14.01,2013-04-23 07:50:00,
2013-04-23 04:00:00,36.0,32.8,30.51,NE,45,0.0,2.0,88,0.00,,FEW027,0.00,VWS V14.01,2013-04-23 08:00:00,
2013-04-23 04:10:00,36.0,33.1,30.51,NE,45,0.0,2.0,89,0.00,,FEW027,0.00,VWS V14.01,2013-04-23 08:10:00,
2013-04-23 04:14:00,36.0,32.8,30.51,NE,45,0.0,2.0,88,0.00,,FEW027,0.00,VWS V14.01,2013-04-23 08:14:00,
2013-04-23 04:15:00,36.0,33.1,30.51,NE,45,1.0,2.0,89,0.00,,FEW027,0.00,VWS V14.01,2013-04-23 08:15:00,
2013-04-23 04:16:00,36.0,33.1,30.51,NNE,22,0.0,2.0,89,0.00,,FEW027,0.00,VWS V14.01,2013-04-23 08:16:00,
2013-04-23 04:17:00,36.0,33.1,30.51,NNE,22,0.0,2.0,89,0.00,,FEW027,0.00,VWS V14.01,2013-04-23 08:17:00,
2013-04-23 04:20:00,36.0,33.1,30.51,NE,45,0.0,2.0,89,0.00,,FEW027,0.00,VWS V14.01,2013-04-23 08:20:00,
2013-04-23 04:30:00,36.0,33.1,30.51,NE,45,0.0,0.0,89,0.00,,FEW027,0.00,VWS V14.01,2013-04-23 08:30:00,
2013-04-23 04:40:00,36.0,33.1,30.51,NE,45,0.0,0.0,89,0.00,,FEW027,0.00,VWS V14.01,2013-04-23 08:40:00,
2013-04-23 04:50:00,36.0,33.1,30.51,North,360,0.0,0.0,89,0.00,,FEW027,0.00,VWS V14.01,2013-04-23 08:50:00,
2013-04-23 05:00:00,36.0,33.1,30.51,NE,45,0.0,0.0,89,0.00,,FEW027,0.00,VWS V14.01,2013-04-23 09:00:00,
2013-04-23 05:10:00,36.0,33.1,30.50,NE,45,0.0,0.0,89,0.00,,FEW027,0.00,VWS V14.01,2013-04-23 09:10:00,
2013-04-23 05:16:00,36.0,33.1,30.51,NE,45,1.0,2.0,89,0.00,,FEW027,0.00,VWS V14.01,2013-04-23 09:16:00,
2013-04-23 05:20:00,36.0,32.8,30.51,NNE,22,0.0,0.0,88,0.00,,FEW027,0.00,VWS V14.01,2013-04-23 09:20:00,
2013-04-23 05:30:00,36.0,32.8,30.50,NE,45,1.0,1.0,88,0.00,,FEW027,0.00,VWS V14.01,2013-04-23 09:30:00,
2013-04-23 05:40:00,36.0,32.8,30.50,NE,45,1.0,1.0,88,0.00,,FEW027,0.00,VWS V14.01,2013-04-23 09:40:00,
2013-04-23 05:50:00,37.0,33.8,30.50,North,360,0.0,1.0,88,0.00,,FEW027,0.00,VWS V14.01,2013-04-23 09:50:00,
2013-04-23 06:00:00,37.0,33.8,30.51,NE,45,0.0,0.0,88,0.00,,FEW027,0.00,VWS V14.01,2013-04-23 10:00:00,
2013-04-23 06:10:00,37.0,33.8,30.51,NNE,22,1.0,1.0,88,0.00,,FEW027,0.00,VWS V14.01,2013-04-23 10:10:00,
2013-04-23 06:20:00,37.0,34.1,30.51,ENE,67,0.0,1.0,89,0.00,,FEW027,0.00,VWS V14.01,2013-04-23 10:20:00,
2013-04-23 06:30:00,37.0,35.2,30.51,ENE,67,1.0,1.0,93,0.00,,FEW027,0.00,VWS V14.01,2013-04-23 10:30:00,
2013-04-23 06:40:00,36.0,34.7,30.51,NE,45,1.0,1.0,95,0.00,,FEW027,0.00,VWS V14.01,2013-04-23 10:40:00,
2013-04-23 06:50:00,36.0,34.7,30.50,NE,45,1.0,1.0,95,0.00,,FEW027,0.00,VWS V14.01,2013-04-23 10:50:00,
2013-04-23 07:00:00,36.0,34.7,30.50,ENE,67,1.0,1.0,95,0.00,,FEW027,0.00,VWS V14.01,2013-04-23 11:00:00,
2013-04-23 07:10:00,36.0,34.7,30.50,NE,45,1.0,1.0,95,0.00,,FEW027,0.00,VWS V14.01,2013-04-23 11:10:00,
2013-04-23 07:20:00,36.0,34.7,30.50,NE,45,1.0,1.0,95,0.00,,FEW027,0.00,VWS V14.01,2013-04-23 11:20:00,
2013-04-23 07:30:00,36.0,34.7,30.50,NE,45,1.0,1.0,95,0.00,,FEW027,0.00,VWS V14.01,2013-04-23 11:30:00,
2013-04-23 07:40:00,36.0,34.7,30.50,NE,45,1.0,1.0,95,0.00,,FEW027,0.00,VWS V14.01,2013-04-23 11:40:00,
2013-04-23 07:50:00,37.0,35.7,30.50,NNW,337,0.0,1.0,95,0.00,,FEW027,0.00,VWS V14.01,2013-04-23 11:50:00,
2013-04-23 08:00:00,37.0,35.7,30.49,NE,45,1.0,1.0,95,0.00,,FEW027,0.00,VWS V14.01,2013-04-23 12:00:00,
2013-04-23 08:10:00,37.0,35.7,30.49,NE,45,1.0,1.0,95,0.00,,FEW027,0.01,VWS V14.01,2013-04-23 12:10:00,
2013-04-23 08:20:00,37.0,35.7,30.49,NE,45,1.0,1.0,95,0.00,,FEW027,0.01,VWS V14.01,2013-04-23 12:20:00,
2013-04-23 08:30:00,37.0,35.7,30.48,NNE,22,1.0,1.0,95,0.00,,FEW027,0.01,VWS V14.01,2013-04-23 12:30:00,
2013-04-23 08:40:00,37.0,35.7,30.48,NE,45,0.0,1.0,95,0.00,,FEW027,0.01,VWS V14.01,2013-04-23 12:40:00,
2013-04-23 08:50:00,37.0,35.7,30.48,NE,45,1.0,1.0,95,0.00,,FEW027,0.01,VWS V14.01,2013-04-23 12:50:00,
2013-04-23 09:00:00,37.0,35.7,30.48,ENE,67,1.0,1.0,95,0.00,,FEW027,0.01,VWS V14.01,2013-04-23 13:00:00,
2013-04-23 09:10:00,37.0,35.7,30.47,NNE,22,1.0,1.0,95,0.00,,FEW027,0.01,VWS V14.01,2013-04-23 13:10:00,
2013-04-23 09:20:00,38.0,37.0,30.47,NE,45,1.0,1.0,96,0.00,,FEW027,0.01,VWS V14.01,2013-04-23 13:20:00,
2013-04-23 09:30:00,38.0,37.0,30.47,ENE,67,1.0,1.0,96,0.00,,FEW027,0.01,VWS V14.01,2013-04-23 13:30:00,
2013-04-23 09:40:00,38.0,37.0,30.47,ESE,112,0.0,1.0,96,0.00,,FEW027,0.01,VWS V14.01,2013-04-23 13:40:00,
2013-04-23 09:50:00,38.0,37.0,30.47,NNE,22,1.0,1.0,96,0.00,,FEW027,0.01,VWS V14.01,2013-04-23 13:50:00,
2013-04-23 10:00:00,38.0,37.0,30.47,ENE,67,1.0,1.0,96,0.00,,FEW027,0.02,VWS V14.01,2013-04-23 14:00:00,
2013-04-23 10:10:00,38.0,37.0,30.47,ENE,67,1.0,1.0,96,0.00,,FEW027,0.02,VWS V14.01,2013-04-23 14:10:00,
2013-04-23 10:20:00,39.0,38.0,30.47,North,360,1.0,1.0,96,0.00,,FEW027,0.02,VWS V14.01,2013-04-23 14:20:00,
2013-04-23 10:30:00,39.0,38.0,30.47,NE,45,0.0,1.0,96,0.00,,FEW027,0.02,VWS V14.01,2013-04-23 14:30:00,
2013-04-23 10:40:00,39.0,38.0,30.46,NE,45,0.0,0.0,96,0.00,,FEW027,0.02,VWS V14.01,2013-04-23 14:40:00,
2013-04-23 10:50:00,39.0,38.0,30.46,East,90,0.0,0.0,96,0.00,,FEW027,0.02,VWS V14.01,2013-04-23 14:50:00,
2013-04-23 11:00:00,39.0,38.0,30.45,ENE,67,1.0,1.0,96,0.00,,FEW027,0.02,VWS V14.01,2013-04-23 15:00:00,
2013-04-23 11:10:00,39.0,38.0,30.45,NE,45,0.0,1.0,96,0.00,,FEW027,0.02,VWS V14.01,2013-04-23 15:10:00,
2013-04-23 11:20:00,39.0,38.0,30.45,East,90,1.0,1.0,96,0.00,,FEW027,0.02,VWS V14.01,2013-04-23 15:20:00,
2013-04-23 11:30:00,40.0,39.0,30.44,ENE,67,0.0,1.0,96,0.00,,FEW027,0.02,VWS V14.01,2013-04-23 15:30:00,
2013-04-23 11:40:00,40.0,39.0,30.43,ESE,112,0.0,0.0,96,0.00,,FEW027,0.02,VWS V14.01,2013-04-23 15:40:00,
2013-04-23 11:50:00,40.0,39.0,30.43,NNE,22,1.0,1.0,96,0.00,,FEW027,0.02,VWS V14.01,2013-04-23 15:50:00,
2013-04-23 12:00:00,40.0,39.0,30.42,North,360,1.0,1.0,96,0.00,,FEW027,0.02,VWS V14.01,2013-04-23 16:00:00,
2013-04-23 12:10:00,40.0,39.0,30.42,ENE,67,1.0,1.0,96,0.00,,FEW027,0.02,VWS V14.01,2013-04-23 16:10:00,
2013-04-23 12:20:00,40.0,39.0,30.42,East,90,1.0,1.0,96,0.00,,FEW027,0.02,VWS V14.01,2013-04-23 16:20:00,
2013-04-23 12:30:00,40.0,39.0,30.41,East,90,1.0,1.0,96,0.00,,FEW027,0.02,VWS V14.01,2013-04-23 16:30:00,
2013-04-23 12:40:00,40.0,39.0,30.41,North,360,1.0,1.0,96,0.00,,FEW027,0.02,VWS V14.01,2013-04-23 16:40:00,
2013-04-23 12:50:00,41.0,40.0,30.40,ENE,67,1.0,1.0,96,0.00,,FEW027,0.02,VWS V14.01,2013-04-23 16:50:00,
2013-04-23 13:00:00,41.0,40.0,30.40,ESE,112,1.0,1.0,96,0.00,,FEW027,0.02,VWS V14.01,2013-04-23 17:00:00,
2013-04-23 13:10:00,41.0,40.0,30.39,ENE,67,1.0,1.0,96,0.00,,FEW027,0.02,VWS V14.01,2013-04-23 17:10:00,
2013-04-23 13:20:00,41.0,40.0,30.39,ENE,67,1.0,1.0,96,0.00,,FEW027,0.02,VWS V14.01,2013-04-23 17:20:00,
2013-04-23 13:30:00,41.0,40.0,30.39,ENE,67,1.0,1.0,96,0.00,,FEW027,0.02,VWS V14.01,2013-04-23 17:30:00,
2013-04-23 13:40:00,41.0,40.0,30.38,ENE,67,1.0,1.0,96,0.00,,FEW027,0.02,VWS V14.01,2013-04-23 17:40:00,
2013-04-23 13:50:00,41.0,40.0,30.37,East,90,1.0,1.0,96,0.00,,FEW027,0.02,VWS V14.01,2013-04-23 17:50:00,
2013-04-23 14:00:00,41.0,40.0,30.37,ENE,67,2.0,2.0,96,0.00,,FEW027,0.02,VWS V14.01,2013-04-23 18:00:00,
2013-04-23 14:10:00,41.0,40.0,30.37,ENE,67,1.0,2.0,96,0.00,,FEW027,0.02,VWS V14.01,2013-04-23 18:10:00,
2013-04-23 14:20:00,41.0,40.0,30.36,NE,45,1.0,1.0,96,0.00,,FEW027,0.02,VWS V14.01,2013-04-23 18:20:00,
2013-04-23 14:30:00,41.0,40.0,30.36,North,360,1.0,1.0,96,0.00,,FEW027,0.02,VWS V14.01,2013-04-23 18:30:00,
2013-04-23 14:40:00,41.0,40.0,30.35,NE,45,1.0,1.0,96,0.00,,FEW027,0.02,VWS V14.01,2013-04-23 18:40:00,
2013-04-23 14:50:00,41.0,40.0,30.35,East,90,1.0,1.0,96,0.00,,FEW027,0.02,VWS V14.01,2013-04-23 18:50:00,
2013-04-23 15:00:00,41.0,40.0,30.35,ENE,67,1.0,1.0,96,0.00,,FEW027,0.03,VWS V14.01,2013-04-23 19:00:00,
2013-04-23 15:10:00,41.0,40.0,30.34,North,360,1.0,1.0,96,0.00,,FEW027,0.03,VWS V14.01,2013-04-23 19:10:00,
2013-04-23 15:20:00,41.0,40.0,30.34,ENE,67,1.0,1.0,96,0.00,,FEW027,0.03,VWS V14.01,2013-04-23 19:20:00,
2013-04-23 15:30:00,41.0,40.0,30.34,ENE,67,1.0,1.0,96,0.00,,FEW027,0.03,VWS V14.01,2013-04-23 19:30:00,
2013-04-23 15:40:00,41.0,40.0,30.33,North,360,1.0,1.0,96,0.00,,FEW027,0.03,VWS V14.01,2013-04-23 19:40:00,
2013-04-23 15:50:00,41.0,40.0,30.34,NE,45,1.0,1.0,96,0.00,,FEW027,0.03,VWS V14.01,2013-04-23 19:50:00,
2013-04-23 16:00:00,41.0,40.0,30.33,NE,45,1.0,1.0,96,0.00,,FEW027,0.03,VWS V14.01,2013-04-23 20:00:00,
2013-04-23 16:10:00,41.0,40.0,30.34,East,90,1.0,1.0,96,0.00,,FEW027,0.03,VWS V14.01,2013-04-23 20:10:00,
2013-04-23 16:20:00,41.0,40.0,30.34,ENE,67,1.0,1.0,96,0.00,,FEW027,0.03,VWS V14.01,2013-04-23 20:20:00,
2013-04-23 16:30:00,41.0,40.0,30.33,NE,45,1.0,1.0,96,0.00,,FEW027,0.03,VWS V14.01,2013-04-23 20:30:00,
2013-04-23 16:40:00,41.0,40.0,30.33,East,90,2.0,2.0,96,0.00,,FEW027,0.03,VWS V14.01,2013-04-23 20:40:00,
2013-04-23 16:50:00,41.0,40.0,30.33,ENE,67,1.0,2.0,96,0.00,,FEW027,0.03,VWS V14.01,2013-04-23 20:50:00,
2013-04-23 17:00:00,41.0,40.0,30.31,NE,45,1.0,1.0,96,0.00,,FEW027,0.03,VWS V14.01,2013-04-23 21:00:00,
2013-04-23 17:10:00,40.0,39.0,30.31,ESE,112,2.0,2.0,96,0.00,,FEW027,0.03,VWS V14.01,2013-04-23 21:10:00,
2013-04-23 17:20:00,40.0,39.0,30.30,ENE,67,1.0,2.0,96,0.00,,FEW027,0.03,VWS V14.01,2013-04-23 21:20:00,
2013-04-23 17:30:00,40.0,39.0,30.29,East,90,1.0,1.0,96,0.00,,FEW027,0.03,VWS V14.01,2013-04-23 21:30:00,
2013-04-23 17:40:00,40.0,39.0,30.29,ENE,67,1.0,1.0,96,0.00,,FEW027,0.03,VWS V14.01,2013-04-23 21:40:00,
2013-04-23 17:50:00,40.0,39.0,30.29,NNW,337,1.0,1.0,96,0.00,,FEW027,0.03,VWS V14.01,2013-04-23 21:50:00,
2013-04-23 18:00:00,40.0,39.0,30.28,NE,45,1.0,1.0,96,0.00,,FEW027,0.03,VWS V14.01,2013-04-23 22:00:00,
2013-04-23 18:10:00,40.0,39.0,30.28,ENE,67,1.0,1.0,96,0.00,,FEW027,0.03,VWS V14.01,2013-04-23 22:10:00,
2013-04-23 18:20:00,40.0,39.0,30.28,NE,45,1.0,1.0,96,0.00,,FEW027,0.03,VWS V14.01,2013-04-23 22:20:00,
2013-04-23 18:29:00,40.0,39.0,30.28,SE,135,4.0,4.0,96,0.03,,FEW027,0.03,VWS V14.01,2013-04-23 22:29:00,
2013-04-23 18:30:00,40.0,39.0,30.28,NNE,22,1.0,4.0,96,0.03,,FEW027,0.03,VWS V14.01,2013-04-23 22:30:00,
2013-04-23 18:31:00,40.0,39.0,30.28,NE,45,1.0,2.0,96,0.03,,FEW027,0.03,VWS V14.01,2013-04-23 22:31:00,
2013-04-23 18:32:00,40.0,39.0,30.28,ENE,67,2.0,2.0,96,0.03,,,0.03,VWS V14.01,2013-04-23 22:32:00,
2013-04-23 18:33:00,40.0,39.0,30.28,ENE,67,2.0,2.0,96,0.03,,,0.03,VWS V14.01,2013-04-23 22:33:00,
2013-04-23 18:34:00,40.0,39.0,30.28,East,90,2.0,6.0,96,0.03,,,0.03,VWS V14.01,2013-04-23 22:34:00,
2013-04-23 19:31:00,40.0,39.0,30.28,ENE,67,0.0,2.0,96,0.03,,,0.03,VWS V14.01,2013-04-23 23:31:00,
2013-04-23 19:32:00,40.0,39.0,30.28,North,360,1.0,6.0,96,0.03,,,0.03,VWS V14.01,2013-04-23 23:32:00,
2013-04-23 19:33:00,40.0,39.0,30.28,NE,45,2.0,6.0,96,0.03,,,0.03,VWS V14.01,2013-04-23 23:33:00,
2013-04-23 19:36:00,40.0,39.0,30.28,ENE,67,2.0,6.0,96,0.03,,,0.03,VWS V14.01,2013-04-23 23:36:00,
2013-04-23 19:37:00,40.0,39.0,30.27,ENE,67,4.0,6.0,96,0.03,,,0.03,VWS V14.01,2013-04-23 23:37:00,
2013-04-23 19:38:00,40.0,39.0,30.27,NE,45,2.0,6.0,96,0.03,,,0.03,VWS V14.01,2013-04-23 23:38:00,
2013-04-23 19:41:00,40.0,39.0,30.27,NE,45,2.0,7.0,96,0.03,,,0.03,VWS V14.01,2013-04-23 23:41:00,
2013-04-23 19:42:00,40.0,39.0,30.27,NNE,22,1.0,7.0,96,0.03,,,0.03,VWS V14.01,2013-04-23 23:42:00,
2013-04-23 19:43:00,40.0,39.0,30.27,NE,45,0.0,7.0,96,0.03,,,0.03,VWS V14.01,2013-04-23 23:43:00,
2013-04-23 19:44:00,40.0,39.0,30.27,ENE,67,0.0,7.0,96,0.03,,,0.03,VWS V14.01,2013-04-23 23:44:00,
2013-04-23 19:46:00,40.0,39.0,30.27,NE,45,1.0,7.0,96,0.03,,,0.03,VWS V14.01,2013-04-23 23:46:00,
2013-04-23 19:47:00,41.0,40.0,30.27,North,360,1.0,7.0,96,0.03,,,0.03,VWS V14.01,2013-04-23 23:47:00,
2013-04-23 19:48:00,40.0,39.0,30.27,North,360,1.0,7.0,96,0.03,,,0.03,VWS V14.01,2013-04-23 23:48:00,
2013-04-23 19:49:00,40.0,39.0,30.27,ENE,67,1.0,3.0,96,0.03,,,0.03,VWS V14.01,2013-04-23 23:49:00,
2013-04-23 19:51:00,40.0,39.0,30.27,NNE,22,2.0,9.0,96,0.03,,,0.03,VWS V14.01,2013-04-23 23:51:00,
2013-04-23 19:52:00,41.0,40.0,30.27,ENE,67,1.0,9.0,96,0.03,,,0.03,VWS V14.01,2013-04-23 23:52:00,
2013-04-23 19:53:00,40.0,39.0,30.27,ENE,67,0.0,9.0,96,0.03,,,0.03,VWS V14.01,2013-04-23 23:53:00,
2013-04-23 19:54:00,40.0,39.0,30.27,NNE,22,1.0,9.0,96,0.03,,,0.03,VWS V14.01,2013-04-23 23:54:00,
2013-04-23 19:56:00,40.0,39.0,30.27,ENE,67,2.0,9.0,96,0.03,,,0.03,VWS V14.01,2013-04-23 23:56:00,
2013-04-23 19:58:00,41.0,40.0,30.27,East,90,2.0,9.0,96,0.03,,,0.03,VWS V14.01,2013-04-23 23:58:00,
2013-04-23 19:59:00,40.0,39.0,30.27,NE,45,3.0,6.0,96,0.03,,,0.03,VWS V14.01,2013-04-23 23:59:00,
2013-04-23 20:01:00,40.0,39.0,30.27,NE,45,1.0,6.0,96,0.03,,,0.03,VWS V14.01,2013-04-24 00:01:00,
2013-04-23 20:03:00,41.0,40.0,30.26,ENE,67,1.0,6.0,96,0.03,,,0.03,VWS V14.01,2013-04-24 00:03:00,
2013-04-23 20:04:00,40.0,39.0,30.26,NE,45,1.0,6.0,96,0.03,,,0.03,VWS V14.01,2013-04-24 00:04:00,
2013-04-23 20:06:00,40.0,39.0,30.26,ENE,67,1.0,6.0,96,0.03,,,0.03,VWS V14.01,2013-04-24 00:06:00,
2013-04-23 20:08:00,40.0,39.0,30.26,NE,45,2.0,6.0,96,0.03,,,0.03,VWS V14.01,2013-04-24 00:08:00,
2013-04-23 20:09:00,40.0,39.0,30.26,NNE,22,3.0,3.0,96,0.03,,,0.03,VWS V14.01,2013-04-24 00:09:00,
2013-04-23 20:10:00,40.0,39.0,30.22,ENE,67,2.0,5.0,96,0.01,,,0.04,VWS V14.01,2013-04-24 00:10:00,
2013-04-23 20:11:00,40.0,39.0,30.26,ENE,67,1.0,9.0,96,0.03,,,0.03,VWS V14.01,2013-04-24 00:11:00,
2013-04-23 20:13:00,40.0,39.0,30.27,NE,45,0.0,9.0,96,0.03,,,0.03,VWS V14.01,2013-04-24 00:13:00,
2013-04-23 20:14:00,40.0,39.0,30.27,NNE,22,1.0,9.0,96,0.03,,,0.03,VWS V14.01,2013-04-24 00:14:00,
2013-04-23 20:17:00,40.0,39.0,30.27,NNW,337,0.0,9.0,96,0.03,,,0.03,VWS V14.01,2013-04-24 00:17:00,
2013-04-23 20:18:00,40.0,39.0,30.26,NNE,22,0.0,9.0,96,0.03,,,0.03,VWS V14.01,2013-04-24 00:18:00,
2013-04-23 20:19:00,40.0,39.0,30.26,NNE,22,0.0,0.0,96,0.03,,,0.03,VWS V14.01,2013-04-24 00:19:00,
2013-04-23 20:20:00,40.0,39.0,30.23,East,90,0.0,5.0,96,0.01,,,0.04,VWS V14.01,2013-04-24 00:20:00,
2013-04-23 20:22:00,40.0,39.0,30.26,NE,45,1.0,7.0,96,0.03,,,0.03,VWS V14.01,2013-04-24 00:22:00,
2013-04-23 20:23:00,40.0,39.0,30.26,NNE,22,2.0,7.0,96,0.03,,,0.03,VWS V14.01,2013-04-24 00:23:00,
2013-04-23 20:24:00,40.0,39.0,30.26,ENE,67,2.0,7.0,96,0.03,,,0.03,VWS V14.01,2013-04-24 00:24:00,
2013-04-23 20:27:00,40.0,39.0,30.26,ENE,67,1.0,7.0,96,0.03,,,0.03,VWS V14.01,2013-04-24 00:27:00,
2013-04-23 20:28:00,40.0,39.0,30.26,ENE,67,0.0,7.0,96,0.03,,,0.03,VWS V14.01,2013-04-24 00:28:00,
2013-04-23 20:29:00,40.0,39.0,30.26,NE,45,1.0,2.0,96,0.00,,,0.03,VWS V14.01,2013-04-24 00:29:00,
2013-04-23 20:30:00,40.0,39.0,30.26,North,360,2.0,3.0,96,0.00,,,0.03,VWS V14.01,2013-04-24 00:30:00,
2013-04-23 20:32:00,40.0,39.0,30.26,NE,45,0.0,4.0,96,0.00,,,0.03,VWS V14.01,2013-04-24 00:32:00,
2013-04-23 20:33:00,40.0,39.0,30.26,NNE,22,2.0,4.0,96,0.00,,,0.03,VWS V14.01,2013-04-24 00:33:00,
2013-04-23 20:34:00,40.0,39.0,30.26,NE,45,3.0,4.0,96,0.00,,,0.04,VWS V14.01,2013-04-24 00:34:00,
2013-04-23 20:35:00,40.0,39.0,30.26,ENE,67,2.0,6.0,96,0.01,,,0.04,VWS V14.01,2013-04-24 00:35:00,
2013-04-23 20:37:00,40.0,39.0,30.26,NNE,22,1.0,6.0,96,0.01,,,0.04,VWS V14.01,2013-04-24 00:37:00,
2013-04-23 20:39:00,40.0,39.0,30.26,North,360,1.0,2.0,96,0.01,,,0.04,VWS V14.01,2013-04-24 00:39:00,
2013-04-23 20:40:00,40.0,39.0,30.26,ENE,67,0.0,4.0,96,0.01,,,0.04,VWS V14.01,2013-04-24 00:40:00,
2013-04-23 20:42:00,40.0,39.0,30.26,NE,45,0.0,4.0,96,0.01,,,0.04,VWS V14.01,2013-04-24 00:42:00,
2013-04-23 20:44:00,40.0,39.0,30.25,ENE,67,0.0,4.0,96,0.01,,,0.04,VWS V14.01,2013-04-24 00:44:00,
2013-04-23 20:45:00,40.0,39.0,30.25,North,360,0.0,4.0,96,0.01,,,0.04,VWS V14.01,2013-04-24 00:45:00,
2013-04-23 20:47:00,40.0,39.0,30.25,East,90,2.0,4.0,96,0.01,,,0.04,VWS V14.01,2013-04-24 00:47:00,
2013-04-23 20:49:00,40.0,39.0,30.24,North,360,1.0,6.0,96,0.01,,,0.04,VWS V14.01,2013-04-24 00:49:00,
2013-04-23 20:50:00,40.0,39.0,30.24,North,360,2.0,6.0,96,0.01,,,0.04,VWS V14.01,2013-04-24 00:50:00,
2013-04-23 20:52:00,40.0,39.0,30.24,ESE,112,1.0,6.0,96,0.01,,,0.04,VWS V14.01,2013-04-24 00:52:00,
2013-04-23 20:54:00,40.0,39.0,30.24,NE,45,2.0,6.0,96,0.01,,,0.04,VWS V14.01,2013-04-24 00:54:00,
2013-04-23 20:55:00,40.0,39.0,30.24,ESE,112,0.0,6.0,96,0.01,,,0.04,VWS V14.01,2013-04-24 00:55:00,
2013-04-23 20:57:00,40.0,39.0,30.23,East,90,2.0,6.0,96,0.01,,,0.04,VWS V14.01,2013-04-24 00:57:00,
2013-04-23 21:00:00,41.0,40.0,30.22,East,90,0.0,7.0,96,0.00,,,0.04,VWS V14.01,2013-04-24 01:00:00,
2013-04-23 21:10:00,41.0,40.0,30.22,NE,45,0.0,5.0,96,0.00,,,0.04,VWS V14.01,2013-04-24 01:10:00,
2013-04-23 21:20:00,41.0,40.0,30.21,ESE,112,1.0,6.0,96,0.00,,,0.04,VWS V14.01,2013-04-24 01:20:00,
2013-04-23 21:30:00,41.0,40.0,30.20,North,360,2.0,6.0,96,0.00,,,0.04,VWS V14.01,2013-04-24 01:30:00,
2013-04-23 21:40:00,41.0,40.0,30.20,NE,45,1.0,4.0,96,0.00,,,0.04,VWS V14.01,2013-04-24 01:40:00,
2013-04-23 21:50:00,41.0,40.0,30.19,ENE,67,1.0,2.0,96,0.00,,,0.04,VWS V14.01,2013-04-24 01:50:00,
2013-04-23 22:00:00,41.0,40.0,30.19,NE,45,1.0,4.0,96,0.01,,,0.05,VWS V14.01,2013-04-24 02:00:00,
2013-04-23 22:10:00,41.0,40.0,30.18,NE,45,2.0,4.0,96,0.01,,,0.05,VWS V14.01,2013-04-24 02:10:00,
2013-04-23 22:20:00,41.0,40.0,30.18,NNE,22,1.0,6.0,96,0.01,,,0.05,VWS V14.01,2013-04-24 02:20:00,
2013-04-23 22:30:00,41.0,40.0,30.18,ENE,67,0.0,4.0,96,0.01,,,0.05,VWS V14.01,2013-04-24 02:30:00,
2013-04-23 22:40:00,41.0,40.0,30.17,NE,45,0.0,6.0,96,0.01,,,0.05,VWS V14.01,2013-04-24 02:40:00,
2013-04-23 22:50:00,41.0,40.0,30.17,NE,45,0.0,7.0,96,0.01,,,0.05,VWS V14.01,2013-04-24 02:50:00,
2013-04-23 23:00:00,41.0,40.0,30.16,NE,45,1.0,7.0,96,0.01,,,0.05,VWS V14.01,2013-04-24 03:00:00,
2013-04-23 23:10:00,41.0,40.0,30.15,ENE,67,0.0,6.0,96,0.00,,,0.05,VWS V14.01,2013-04-24 03:10:00,
2013-04-23 23:20:00,41.0,40.0,30.14,NE,45,5.0,7.0,96,0.00,,,0.05,VWS V14.01,2013-04-24 03:20:00,
2013-04-23 23:30:00,41.0,40.0,30.13,NE,45,3.0,5.0,96,0.00,,,0.05,VWS V14.01,2013-04-24 03:30:00,
2013-04-23 23:40:00,41.0,40.0,30.12,NE,45,1.0,3.0,96,0.00,,,0.05,VWS V14.01,2013-04-24 03:40:00,
2013-04-23 23:50:00,41.0,40.0,30.11,ENE,67,2.0,4.0,96,0.00,,,0.05,VWS V14.01,2013-04-24 03:50:00,